[[{"header":{"parameterUnit":"m.s-1","parameterCategory":1,"la1":30.2991,"la2":30.254,"lo1":-89.0895,"lo2":-89.0444,"dy":0.0017,"dx":0.0017,"nx":28,"ny":28,"refTime":"2025-12-24T09:00:00:Z","depth":0,"parameterNumber":2,"parameterNumberName":"U-component_of_WINDS"},"data":[0,0,0,0,0,0,0,0,0,0,0,0,0,0,0,0,0,0,0,0,0,0,0,0,0,0,0,0,0,0,0,0,0,0,0,0,0,0,0,0,0,0,0,0,0,0,0,0,0,0,0,0,0,0,0,0,0,0,2.3233,2.3236,0,2.3479,2.3482,2.3484,2.3559,2.3558,2.3556,2.3555,2.3811,2.3819,2.3827,0,0,0,0,0,0,0,0,0,0,0,0,0,2.2831,2.2838,2.3233,2.3236,2.3239,2.3478,2.3482,2.3485,2.3559,2.3558,2.3556,2.3555,2.3808,2.3818,2.3827,0,0,0,0,0,0,0,0,0,0,0,0,0,2.3034,2.284,2.3232,2.3304,2.3313,2.3478,2.3482,2.3486,2.3559,2.3557,2.3556,2.3554,2.3805,2.3817,2.3829,2.394,0,0,2.3865,2.387,0,0,0,0,0,0,0,0,2.3022,2.3049,2.3291,2.33,2.331,2.3486,2.3434,2.3638,2.356,2.3466,2.3555,2.3553,2.3705,2.3725,2.3775,2.3952,2.3963,2.3866,2.3873,2.3879,2.3882,0,0,0,0,0,0,0,2.3008,2.3039,2.333,2.3294,2.3306,2.3326,2.3353,2.3473,2.3593,2.3474,2.348,2.3508,2.371,2.3763,2.3782,2.3967,2.3866,2.3876,2.3884,2.3889,2.4248,2.4251,0,0,0,0,0,0,2.2981,2.3026,2.3322,2.3338,2.3159,2.3335,2.3365,2.3432,2.3592,2.3614,2.3509,2.3511,2.3744,2.3768,2.3791,2.3932,2.3878,2.389,2.3897,2.4246,2.4249,2.4251,0,0,0,0,0,0,2.2972,2.3007,2.3313,2.3184,2.3224,2.3344,2.3418,2.3437,2.3491,2.3618,2.3641,2.3542,2.3743,2.3774,2.3902,2.3942,2.3895,2.3906,2.4243,2.4247,2.425,2.4215,0,0,0,0,0,0,2.2961,2.3003,2.3046,2.3184,2.3231,2.3418,2.3421,2.3444,2.3511,2.3515,2.3655,2.3676,2.3744,2.3884,2.3914,2.3958,2.3915,2.424,2.4245,2.4249,2.4213,2.4217,2.422,0,0,0,0,0,2.2946,2.3027,2.3048,2.3083,2.3286,2.342,2.3447,2.3522,2.3514,2.3559,2.364,2.3672,2.3933,2.3896,2.3931,2.3979,2.4238,2.4243,2.4249,2.4212,2.4216,2.422,0,0,0,0,0,0,2.2891,2.3046,2.3071,2.3199,2.3296,2.3432,2.3491,2.3525,2.3627,2.3627,2.3717,2.3748,2.387,2.3938,2.3894,2.4096,2.4087,2.4099,2.4047,2.4052,2.4056,2.4037,2.3925,0,0,0,0,0,2.2894,2.2989,2.312,2.322,2.3267,2.337,2.3432,2.3481,2.3586,2.3628,2.3719,2.382,2.3925,2.3993,2.4096,2.4224,2.4256,2.4274,2.4277,2.428,2.4289,2.4363,2.4372,2.4269,2.4269,2.4269,0,0,2.2901,2.2997,2.3052,2.3211,2.3292,2.339,2.3404,2.3507,2.358,2.3644,2.377,2.384,2.396,2.4088,2.4149,2.4148,2.4325,2.4286,2.4287,2.4296,2.4369,2.4379,2.4387,2.4273,2.4272,2.4271,0,0,2.2962,2.3045,2.3137,2.3218,2.334,2.3408,2.343,2.3563,2.3612,2.3739,2.3789,2.3879,2.4058,2.4141,2.4206,2.4301,2.4334,2.4332,2.4351,2.4421,2.4429,2.4437,2.4471,2.4482,2.4341,2.4341,2.4341,0,2.2956,2.3103,2.3181,2.3281,2.335,2.3411,2.3506,2.3581,2.3731,2.3778,2.3775,2.4001,2.4085,2.4234,2.4257,2.4308,2.4337,2.4316,2.4421,2.443,2.4438,2.4472,2.4484,2.434,2.434,2.4341,2.4341,0,2.3089,2.3191,2.3251,2.3393,2.347,2.3566,2.366,2.3728,2.3772,2.384,2.3971,2.4074,2.42,2.424,2.4283,2.4395,2.4391,2.4403,2.4396,2.4446,2.4479,2.4492,2.4339,2.4339,2.434,2.434,0,0,2.3123,2.3307,2.3328,2.3393,2.3533,2.3614,2.3714,2.3836,2.3893,2.3995,2.4082,2.4232,2.4245,2.4319,2.4373,2.4435,2.4503,2.444,2.4444,2.4448,2.4634,2.4623,2.4637,2.4526,2.4529,2.4531,2.4624,0,2.3203,2.3383,2.3456,2.3603,2.3698,2.3758,2.3846,2.3942,2.4009,2.4101,2.4176,2.4281,2.4289,2.4335,2.4399,2.4481,2.4542,2.4476,2.4609,2.4613,2.4577,2.4654,2.4644,2.4726,2.4637,2.464,2.4641,0,2.332,2.3421,2.3577,2.3705,2.3748,2.3825,2.3943,2.403,2.4141,2.4186,2.4269,2.4319,2.4428,2.4414,2.4566,2.452,2.4579,2.4628,2.4633,2.4649,2.463,2.4672,2.4754,2.4766,2.4662,2.4661,2.4659,0,2.3329,2.3505,2.3621,2.3675,2.3828,2.3881,2.3947,2.4055,2.4124,2.4228,2.4274,2.439,2.4453,2.4542,2.4623,2.4605,2.4768,2.476,2.4809,2.4807,2.4841,2.4838,2.4934,2.4879,2.4879,2.4878,2.4878,0,2.341,2.3503,2.3627,2.3698,2.3805,2.3889,2.3992,2.4063,2.4159,2.4246,2.4306,2.4386,2.4488,2.4583,2.4647,2.4764,2.4792,2.4832,2.4848,2.4827,2.4822,2.4867,2.4864,2.4882,2.4881,2.488,2.488,0,2.3439,2.3525,2.3655,2.3789,2.3825,2.3897,2.4013,2.4085,2.4155,2.4265,2.4295,2.4406,2.4521,2.461,2.4759,2.4803,2.4926,2.4944,2.4888,2.4896,2.494,2.4935,2.5069,2.5091,2.502,2.5021,2.5022,0,2.3485,2.3558,2.3699,2.3761,2.3826,2.3925,2.3996,2.4082,2.4153,2.4285,2.4341,2.4459,2.4558,2.4739,2.4833,2.4948,2.4969,2.5008,2.4987,2.4963,2.497,2.4965,2.4973,2.5011,2.5011,2.5011,2.5011,0,2.3558,2.3597,2.3695,2.3809,2.3891,2.3985,2.408,2.4128,2.4232,2.4309,2.4426,2.4503,2.4655,2.4772,2.4896,2.4967,2.5007,2.5017,2.5035,2.5014,2.4979,2.4999,2.4895,2.5014,2.5014,2.5014,2.5013,2.5013,2.3597,2.3664,2.3774,2.3882,2.3963,2.4051,2.4125,2.4204,2.4303,2.4432,2.4478,2.4598,2.4708,2.488,2.4951,2.5047,2.505,2.5075,2.5081,2.5086,2.5084,2.4963,2.507,2.507,2.507,2.507,2.5071,0,2.3673,2.3746,2.3845,2.3976,2.4061,2.409,2.4198,2.4267,2.4372,2.4471,2.4567,2.4701,2.4815,2.4919,2.5038,2.5096,2.5117,2.5124,2.5121,2.5137,2.5075,2.5048,2.5105,2.5105,2.5105,2.5105,2.5105,2.5105,2.3722,2.3838,2.389,2.4048,2.4121,2.4238,2.4297,2.4379,2.4459,2.4606,2.47,2.4766,2.4868,2.4995,2.5101,2.5129,2.5171,2.5173,2.5205,2.5145,2.5141,2.5136,2.5111,2.5181,2.5181,2.5259,2.526,2.526]},{"header":{"parameterUnit":"m.s-1","parameterCategory":1,"la1":30.2991,"la2":30.254,"lo1":-89.0895,"lo2":-89.0444,"dy":0.0017,"dx":0.0017,"nx":28,"ny":28,"refTime":"2025-12-24T09:00:00:Z","depth":0,"parameterNumber":3,"parameterNumberName":"V-component_of_WINDS"},"data":[0,0,0,0,0,0,0,0,0,0,0,0,0,0,0,0,0,0,0,0,0,0,0,0,0,0,0,0,0,0,0,0,0,0,0,0,0,0,0,0,0,0,0,0,0,0,0,0,0,0,0,0,0,0,0,0,0,0,1.3558,1.3557,0,1.3469,1.3467,1.3466,1.3397,1.3396,1.3395,1.3395,1.33,1.3298,1.3296,0,0,0,0,0,0,0,0,0,0,0,0,0,1.3666,1.3664,1.3558,1.3557,1.3556,1.3469,1.3467,1.3466,1.3397,1.3396,1.3395,1.3394,1.33,1.3298,1.3296,0,0,0,0,0,0,0,0,0,0,0,0,0,1.3602,1.3664,1.3558,1.3511,1.3506,1.3469,1.3467,1.3466,1.3397,1.3396,1.3395,1.3394,1.3301,1.3298,1.3295,1.3298,0,0,1.3287,1.3285,0,0,0,0,0,0,0,0,1.3606,1.3598,1.3519,1.3514,1.3508,1.3443,1.347,1.3409,1.3397,1.3438,1.3395,1.3394,1.3348,1.3341,1.3326,1.3293,1.3289,1.3286,1.3285,1.3283,1.3283,0,0,0,0,0,0,0,1.361,1.3601,1.3523,1.3518,1.3511,1.3493,1.3483,1.3459,1.34,1.3435,1.3429,1.342,1.3345,1.3329,1.3324,1.3288,1.3287,1.3284,1.3282,1.3281,1.3251,1.3251,0,0,0,0,0,0,1.3622,1.3606,1.3525,1.352,1.3556,1.3492,1.348,1.3465,1.34,1.3389,1.3421,1.3417,1.3335,1.3327,1.332,1.3318,1.3284,1.3281,1.3279,1.325,1.3251,1.3252,0,0,0,0,0,0,1.3625,1.3616,1.3529,1.3561,1.3549,1.3491,1.3474,1.3464,1.3448,1.3389,1.3378,1.3416,1.3334,1.3324,1.3304,1.3314,1.328,1.3277,1.3249,1.325,1.3251,1.3314,0,0,0,0,0,0,1.3628,1.3617,1.3618,1.3562,1.3547,1.3516,1.3475,1.3463,1.3444,1.3438,1.3382,1.3372,1.3332,1.3308,1.3301,1.3309,1.3275,1.3247,1.3249,1.3251,1.3311,1.3318,1.3323,0,0,0,0,0,1.3632,1.3639,1.3619,1.361,1.3548,1.3516,1.3508,1.3463,1.3445,1.3445,1.3407,1.3373,1.3314,1.3307,1.3298,1.3305,1.3247,1.3249,1.3251,1.3308,1.3316,1.3323,0,0,0,0,0,0,1.3698,1.3631,1.3608,1.3597,1.3563,1.3505,1.3504,1.3473,1.3443,1.3439,1.3383,1.3371,1.3357,1.3329,1.3322,1.3303,1.3276,1.3276,1.3323,1.333,1.3336,1.3343,1.3272,0,0,0,0,0,1.3711,1.3692,1.3634,1.363,1.3614,1.3562,1.3547,1.3515,1.3477,1.3463,1.3423,1.3387,1.336,1.3343,1.3315,1.3306,1.3293,1.3307,1.3313,1.3318,1.3319,1.3312,1.3317,1.3258,1.3258,1.3258,0,0,1.3738,1.3699,1.369,1.3642,1.3612,1.3593,1.3551,1.3532,1.3517,1.3459,1.3438,1.3408,1.3363,1.3349,1.3341,1.3325,1.3332,1.3321,1.3325,1.3323,1.3315,1.332,1.3325,1.326,1.326,1.3259,0,0,1.3777,1.3746,1.3739,1.371,1.3665,1.3631,1.3629,1.3575,1.3553,1.3531,1.3488,1.3468,1.3422,1.3393,1.3371,1.3399,1.3366,1.3391,1.3423,1.3416,1.3421,1.3425,1.3434,1.3438,1.3392,1.3392,1.3392,0,1.3816,1.3786,1.3739,1.3723,1.3703,1.3651,1.3642,1.3616,1.3564,1.3551,1.3534,1.3476,1.3443,1.342,1.3427,1.3411,1.3407,1.3397,1.3424,1.3428,1.343,1.3439,1.3442,1.3395,1.3395,1.3394,1.3394,0,1.3836,1.3816,1.3815,1.3768,1.3747,1.3735,1.3685,1.3669,1.3639,1.3606,1.3583,1.3541,1.3503,1.3495,1.3466,1.3469,1.346,1.3435,1.3406,1.344,1.3447,1.345,1.34,1.3399,1.3398,1.3397,0,0,1.3914,1.3841,1.3841,1.3819,1.3766,1.3748,1.3733,1.3697,1.3685,1.3651,1.3636,1.3599,1.3575,1.3551,1.3517,1.3511,1.3535,1.3486,1.3484,1.3496,1.3535,1.3555,1.3559,1.3513,1.3513,1.3513,1.3538,0,1.3945,1.3917,1.3874,1.3859,1.3839,1.3789,1.3776,1.3741,1.3709,1.3687,1.365,1.3625,1.3595,1.358,1.3572,1.3534,1.3542,1.3531,1.3498,1.3497,1.3511,1.3563,1.3584,1.3609,1.3541,1.3541,1.3541,0,1.3977,1.3947,1.3931,1.3879,1.3869,1.3858,1.3822,1.3801,1.376,1.3737,1.371,1.3673,1.3653,1.3627,1.3598,1.3592,1.3576,1.3554,1.3554,1.355,1.3522,1.356,1.3616,1.362,1.3545,1.3545,1.3545,0,1.4036,1.3991,1.3976,1.3958,1.3897,1.389,1.3864,1.3822,1.3803,1.377,1.3757,1.3722,1.3703,1.3676,1.363,1.3615,1.3606,1.3576,1.3586,1.3587,1.3586,1.3587,1.3642,1.3576,1.3576,1.3576,1.3575,0,1.4076,1.4068,1.4002,1.3992,1.3981,1.3931,1.3921,1.389,1.3853,1.3836,1.3789,1.3774,1.3714,1.3691,1.3654,1.3636,1.3627,1.3607,1.3598,1.3612,1.3615,1.3601,1.3598,1.3576,1.3576,1.3576,1.3576,0,1.414,1.4095,1.4075,1.4019,1.4005,1.3999,1.395,1.3938,1.3904,1.3882,1.3874,1.3819,1.3789,1.374,1.3696,1.3672,1.366,1.3643,1.3674,1.3668,1.3681,1.368,1.3728,1.3732,1.3664,1.3665,1.3665,0,1.4168,1.4161,1.4105,1.409,1.4066,1.4044,1.4024,1.3973,1.3955,1.3907,1.3901,1.3868,1.3839,1.3793,1.3748,1.3714,1.3697,1.3716,1.3691,1.3705,1.3697,1.3698,1.3697,1.3722,1.3723,1.3724,1.3724,0,1.4223,1.4201,1.4176,1.4143,1.4121,1.4092,1.406,1.4051,1.3992,1.3974,1.3943,1.3921,1.3876,1.3843,1.3803,1.3774,1.3739,1.3732,1.3733,1.3747,1.3765,1.3755,1.369,1.3732,1.3731,1.373,1.373,1.373,1.427,1.4261,1.422,1.4193,1.4164,1.4136,1.4122,1.4085,1.406,1.402,1.3991,1.3963,1.392,1.3862,1.3836,1.3811,1.3796,1.3797,1.3797,1.3798,1.3803,1.3769,1.3804,1.3803,1.3803,1.3803,1.3803,0,1.4323,1.4294,1.4269,1.4227,1.4206,1.4176,1.4139,1.4122,1.4098,1.4062,1.4035,1.4,1.3968,1.392,1.3884,1.3874,1.3857,1.3866,1.3866,1.386,1.3819,1.3822,1.388,1.388,1.388,1.388,1.388,1.388,1.4348,1.4331,1.4305,1.4273,1.4243,1.4216,1.4198,1.4171,1.4142,1.4105,1.4079,1.4048,1.4007,1.3967,1.3936,1.3923,1.3912,1.3926,1.3908,1.387,1.3863,1.3856,1.3859,1.3924,1.3924,1.3951,1.3951,1.3951]}]]